Eveleth, MN

4:59 AM CST on November 15, 2019 (GMT -0600)
Eveleth-Virginia Municipal

Weather History for KEVM - October, 2019

Change the Weather History Date:

Monday, October 21, 2019

  Actual Average Record
Temperature  
Mean Temperature 46 °F -  
Max Temperature 49 °F 48 °F 69 °F (1986)
Min Temperature 43 °F 30 °F 19 °F (2018)
Degree Days  
Heating Degree Days 19    
Moisture  
Dew Point 40 °F    
Average Humidity 84    
Maximum Humidity 96    
Minimum Humidity 68    
Precipitation  
Precipitation 0.83 in - - ()
Sea Level Pressure  
Sea Level Pressure 29.54 in    
Wind  
Wind Speed 9 mph (NE)    
Max Wind Speed 26 mph    
Max Gust Speed 40 mph    
Visibility 9 miles    
Events Rain    
Averages and records for this station are not official NWS values.
T = Trace of Precipitation, MM = Missing Value Source: NWS Daily Summary

Daily Weather History Graph

Daily Weather History Graph

Search for Another Location

Airport or City:

Astronomy

Oct. 21, 2019 Rise Set
Actual Time 7:36 AM CDT 6:11 PM CDT
Civil Twilight 7:05 AM CDT 6:42 PM CDT
Nautical Twilight 6:29 AM CDT 7:18 PM CDT
Astronomical Twilight 5:54 AM CDT 7:53 PM CDT
Moon No Moon Rise 3:09 PM CDT (10/21)
Length of Visible Light 11h 37m
Length of Day
10h 34m
Waning Gibbous, 48% of the Moon is Illuminated
Oct 21
Waning Gibbous
Oct 27
New
Nov 4
First Quarter
Nov 12
Full
Nov 19
Last Quarter

Hourly Weather History & Observations

Time (CDT) Temp. Windchill Dew Point Humidity Pressure Visibility Wind Dir Wind Speed Gust Speed Precip Events Conditions
12:15 AM 46.4 °F 45.2 °F 37.2 °F 70% 29.90 in 10.0 mi NE 3.5 mph - N/A   Overcast
12:19 AM 46.2 °F - 37.2 °F 71% 29.90 in 10.0 mi Calm Calm - N/A   Overcast
12:38 AM 46.2 °F 44.1 °F 37.2 °F 71% 29.89 in 10.0 mi ENE 4.6 mph - N/A   Overcast
12:55 AM 46.8 °F - 36.9 °F 68% 29.89 in 10.0 mi East 3.5 mph - N/A   Overcast
1:15 AM 46.4 °F 44.3 °F 37.0 °F 70% 29.88 in 10.0 mi NE 4.6 mph - N/A   Overcast
1:16 AM 46.4 °F 44.3 °F 37.0 °F 70% 29.88 in 10.0 mi NE 4.6 mph - N/A   Overcast
1:35 AM 46.4 °F 44.3 °F 36.9 °F 69% 29.88 in 10.0 mi NE 4.6 mph - N/A   Overcast
1:36 AM 46.4 °F 43.5 °F 36.9 °F 69% 29.88 in 10.0 mi NE 5.8 mph - N/A   Overcast
1:58 AM 46.4 °F 43.5 °F 37.6 °F 71% 29.86 in 10.0 mi NE 5.8 mph - N/A   Overcast
2:16 AM 46.6 °F - 36.9 °F 69% 29.86 in 10.0 mi ENE 3.5 mph - N/A   Overcast
2:35 AM 45.5 °F 43.2 °F 36.7 °F 71% 29.85 in 10.0 mi NE 4.6 mph - N/A   Scattered Clouds
2:36 AM 45.5 °F 43.2 °F 36.7 °F 71% 29.85 in 10.0 mi NE 4.6 mph - N/A   Scattered Clouds
2:55 AM 44.8 °F 41.0 °F 36.5 °F 73% 29.81 in 10.0 mi NE 6.9 mph - N/A   Clear
2:56 AM 44.8 °F 41.0 °F 36.5 °F 73% 29.81 in 10.0 mi NE 6.9 mph - N/A   Clear
3:15 AM 44.6 °F 41.4 °F 36.5 °F 73% 29.81 in 10.0 mi NE 5.8 mph - N/A   Clear
3:20 AM 44.6 °F 41.4 °F 36.5 °F 73% 29.82 in 10.0 mi NE 5.8 mph - N/A   Clear
3:37 AM 44.4 °F 42.0 °F 36.5 °F 74% 29.82 in 10.0 mi ENE 4.6 mph - N/A   Clear
3:55 AM 44.2 °F 41.0 °F 36.5 °F 74% 29.81 in 10.0 mi NE 5.8 mph - N/A   Clear
4:15 AM 44.6 °F 41.4 °F 36.7 °F 74% 29.79 in 10.0 mi NE 5.8 mph - N/A   Clear
4:16 AM 44.6 °F 42.2 °F 36.7 °F 74% 29.79 in 10.0 mi NE 4.6 mph - N/A   Clear
4:35 AM 44.2 °F 41.0 °F 36.5 °F 74% 29.80 in 10.0 mi ENE 5.8 mph - N/A   Clear
4:36 AM 44.2 °F 41.0 °F 36.5 °F 74% 29.80 in 10.0 mi ENE 5.8 mph - N/A   Clear
4:58 AM 43.5 °F 40.9 °F 36.5 °F 76% 29.79 in 10.0 mi NE 4.6 mph - N/A   Clear
5:17 AM 43.2 °F 39.7 °F 36.5 °F 77% 29.78 in 10.0 mi NE 5.8 mph - N/A   Clear
5:36 AM 43.7 °F 41.1 °F 36.3 °F 75% 29.78 in 10.0 mi ENE 4.6 mph - N/A   Clear
5:55 AM 43.7 °F 40.3 °F 36.5 °F 76% 29.76 in 10.0 mi NE 5.8 mph - N/A   Clear
5:56 AM 43.7 °F 40.3 °F 36.5 °F 76% 29.76 in 10.0 mi NE 5.8 mph - N/A   Clear
6:15 AM 43.9 °F 41.3 °F 36.7 °F 76% 29.76 in 10.0 mi NE 4.6 mph - N/A   Clear
6:37 AM 44.2 °F 41.0 °F 37.4 °F 77% 29.75 in 10.0 mi NE 5.8 mph - N/A   Clear
6:56 AM 44.8 °F 41.6 °F 37.8 °F 76% 29.74 in 10.0 mi ENE 5.8 mph - N/A   Clear
7:15 AM 45.0 °F 40.6 °F 38.3 °F 77% 29.75 in 10.0 mi ENE 8.1 mph - N/A   Scattered Clouds
7:16 AM 45.0 °F 41.2 °F 38.3 °F 77% 29.74 in 10.0 mi ENE 6.9 mph - N/A   Scattered Clouds
7:35 AM 44.6 °F 40.2 °F 38.8 °F 80% 29.73 in 10.0 mi ENE 8.1 mph - N/A   Clear
7:36 AM 44.6 °F 40.2 °F 39.0 °F 81% 29.73 in 10.0 mi ENE 8.1 mph - N/A   Clear
7:58 AM 44.6 °F 39.7 °F 39.4 °F 82% 29.72 in 10.0 mi ENE 9.2 mph - N/A   Mostly Cloudy
8:16 AM 44.6 °F 39.7 °F 39.7 °F 83% 29.72 in 10.0 mi ENE 9.2 mph - N/A   Overcast
8:36 AM 45.0 °F 41.2 °F 39.9 °F 82% 29.71 in 10.0 mi NE 6.9 mph - N/A   Overcast
8:55 AM 45.0 °F 40.6 °F 39.7 °F 82% 29.71 in 10.0 mi ENE 8.1 mph - N/A   Overcast
8:56 AM 45.0 °F 40.1 °F 39.7 °F 82% 29.71 in 10.0 mi ENE 9.2 mph - N/A   Overcast
9:15 AM 45.0 °F 39.3 °F 39.7 °F 82% 29.68 in 10.0 mi NE 11.5 mph - N/A   Overcast
9:19 AM 45.0 °F 40.1 °F 39.7 °F 82% 29.68 in 10.0 mi NE 9.2 mph - N/A   Overcast
9:38 AM 45.1 °F 39.5 °F 39.6 °F 81% 29.67 in 10.0 mi NE 11.5 mph 18.4 mph N/A   Overcast
9:55 AM 45.1 °F 40.3 °F 39.6 °F 81% 29.66 in 10.0 mi NE 9.2 mph 16.1 mph N/A   Overcast
10:15 AM 45.5 °F 40.3 °F 39.7 °F 80% 29.65 in 10.0 mi NE 10.4 mph 20.7 mph N/A   Overcast
10:16 AM 45.5 °F 39.6 °F 39.7 °F 80% 29.65 in 10.0 mi ENE 12.7 mph 20.7 mph N/A   Overcast
10:35 AM 45.7 °F 40.6 °F 40.1 °F 81% 29.63 in 10.0 mi NE 10.4 mph 21.9 mph N/A   Overcast
10:36 AM 45.7 °F 40.2 °F 40.1 °F 81% 29.62 in 10.0 mi NE 11.5 mph 21.9 mph N/A   Overcast
10:58 AM 46.4 °F 40.7 °F 40.5 °F 80% 29.61 in 10.0 mi ENE 12.7 mph 26.5 mph N/A   Mostly Cloudy
11:16 AM 46.9 °F - 41.0 °F 80% 29.59 in 10.0 mi NE 17.3 mph 23.0 mph N/A   Mostly Cloudy
11:35 AM 47.5 °F - 41.4 °F 79% 29.57 in 10.0 mi NE 13.8 mph 25.3 mph N/A   Overcast
11:36 AM 47.5 °F - 41.4 °F 79% 29.57 in 10.0 mi ENE 12.7 mph 24.2 mph N/A   Overcast
11:55 AM 47.8 °F - 41.4 °F 78% 29.55 in 10.0 mi NE 18.4 mph 25.3 mph N/A   Overcast
11:56 AM 47.8 °F - 41.4 °F 78% 29.55 in 10.0 mi NE 18.4 mph 25.3 mph N/A   Overcast
12:15 PM 48.2 °F - 41.4 °F 77% 29.53 in 10.0 mi NE 10.4 mph 24.2 mph N/A   Overcast
12:20 PM 48.4 °F - 41.4 °F 77% 29.53 in 10.0 mi ENE 15.0 mph 20.7 mph N/A   Overcast
12:37 PM 49.1 °F - 41.4 °F 75% 29.51 in 10.0 mi ENE 18.4 mph 26.5 mph N/A   Overcast
12:55 PM 46.9 °F - 43.3 °F 87% 29.49 in 4.0 mi ENE 13.8 mph 28.8 mph 0.03 in Rain Light Rain
1:15 PM 46.4 °F 39.2 °F 43.5 °F 90% 29.47 in 7.0 mi ENE 18.4 mph 27.6 mph 0.02 in Rain Rain
1:16 PM 46.4 °F 39.0 °F 43.5 °F 90% 29.47 in 5.0 mi ENE 19.6 mph 27.6 mph 0.02 in Rain Rain
1:35 PM 45.7 °F 39.8 °F 43.7 °F 93% 29.45 in 5.0 mi NE 12.7 mph 23.0 mph 0.06 in Rain Light Rain
1:36 PM 45.7 °F 38.8 °F 43.7 °F 93% 29.44 in 5.0 mi NE 16.1 mph 27.6 mph 0.06 in Rain Light Rain
2:16 PM 45.5 °F 38.1 °F 43.2 °F 92% 29.41 in 7.0 mi ENE 18.4 mph 25.3 mph 0.02 in Rain Rain
2:35 PM 45.5 °F 37.6 °F 43.2 °F 92% 29.38 in 7.0 mi NE 20.7 mph 33.4 mph 0.06 in Rain Rain
2:55 PM 45.1 °F 37.9 °F 43.3 °F 93% 29.37 in 5.0 mi NE 17.3 mph 27.6 mph 0.13 in Rain Light Rain
2:56 PM 45.1 °F 38.1 °F 43.3 °F 93% 29.37 in 5.0 mi NE 16.1 mph 27.6 mph 0.13 in Rain Light Rain
3:15 PM 44.8 °F 37.1 °F 42.8 °F 93% 29.35 in 3.0 mi NE 18.4 mph 27.6 mph 0.07 in   Overcast
3:37 PM 44.6 °F 36.1 °F 42.6 °F 93% 29.34 in 3.0 mi NE 21.9 mph 29.9 mph 0.15 in   Unknown
3:56 PM 44.6 °F 36.4 °F 42.4 °F 92% 29.33 in 3.0 mi NE 20.7 mph 28.8 mph 0.22 in   Overcast
4:15 PM 44.6 °F 36.4 °F 42.1 °F 91% 29.32 in 5.0 mi NE 20.7 mph 33.4 mph 0.05 in Rain Rain
4:16 PM 44.6 °F 36.6 °F 42.1 °F 91% 29.32 in 5.0 mi NE 19.6 mph 33.4 mph 0.05 in Rain Light Rain
4:35 PM 44.2 °F 35.4 °F 41.9 °F 91% 29.30 in 3.0 mi NNE 23.0 mph 34.5 mph 0.12 in   Overcast
4:36 PM 44.4 °F 35.7 °F 41.9 °F 91% 29.30 in 3.0 mi NE 23.0 mph 34.5 mph 0.13 in Rain Light Rain
4:59 PM 44.2 °F 34.8 °F 41.9 °F 91% 29.28 in 7.0 mi NE 26.5 mph 40.3 mph 0.18 in Rain Light Rain
5:15 PM 44.1 °F 35.0 °F 41.4 °F 90% 29.28 in 10.0 mi NE 24.2 mph 35.7 mph 0.01 in Rain Light Rain
5:35 PM 43.9 °F 35.9 °F 41.4 °F 91% 29.27 in 10.0 mi NE 18.4 mph 28.8 mph 0.02 in Rain Light Rain
5:39 PM 43.7 °F 35.0 °F 41.4 °F 91% 29.27 in 10.0 mi NE 21.9 mph 28.8 mph 0.02 in Rain Light Rain
5:58 PM 43.7 °F 35.2 °F 41.4 °F 91% 29.27 in 10.0 mi NE 20.7 mph 29.9 mph 0.02 in Rain Light Rain
6:15 PM 43.7 °F 36.6 °F 41.4 °F 91% 29.27 in 10.0 mi NE 15.0 mph 29.9 mph 0.01 in Rain Light Rain
6:35 PM 43.7 °F 36.3 °F 41.4 °F 91% 29.27 in 10.0 mi NE 16.1 mph 26.5 mph 0.02 in Rain Light Rain
6:36 PM 43.7 °F 36.0 °F 41.4 °F 91% 29.27 in 10.0 mi NE 17.3 mph 25.3 mph 0.02 in Rain Light Rain
6:55 PM 43.7 °F 36.3 °F 41.5 °F 92% 29.26 in 10.0 mi NE 16.1 mph 28.8 mph 0.05 in Rain Light Rain
7:18 PM 43.7 °F 36.3 °F 41.9 °F 93% 29.25 in 7.0 mi NE 16.1 mph 23.0 mph 0.03 in Rain Rain
7:36 PM 43.7 °F 36.9 °F 42.1 °F 94% 29.25 in 7.0 mi NNE 13.8 mph 24.2 mph 0.08 in Rain Rain
7:55 PM 43.7 °F 36.3 °F 42.3 °F 95% 29.24 in 7.0 mi NNE 16.1 mph 23.0 mph 0.12 in Rain Light Rain
8:15 PM 43.9 °F 37.2 °F 42.4 °F 95% 29.24 in 7.0 mi NNE 13.8 mph 23.0 mph 0.01 in Rain Light Rain
8:16 PM 43.9 °F 37.2 °F 42.4 °F 95% 29.24 in 7.0 mi NNE 13.8 mph 23.0 mph 0.01 in   Light Drizzle
8:35 PM 43.9 °F 38.3 °F 42.8 °F 96% 29.24 in 7.0 mi NNE 10.4 mph 18.4 mph 0.02 in Rain Light Rain
8:39 PM 43.9 °F 38.3 °F 42.8 °F 96% 29.24 in 7.0 mi NE 10.4 mph - 0.02 in Rain Light Rain
8:58 PM 44.1 °F 39.0 °F 43.0 °F 96% 29.23 in 10.0 mi NNE 9.2 mph - 0.02 in   Light Drizzle
9:15 PM 44.1 °F 37.4 °F 42.8 °F 95% 29.22 in 10.0 mi NNE 13.8 mph 18.4 mph N/A   Overcast
9:35 PM 44.4 °F 40.0 °F 43.2 °F 95% 29.22 in 10.0 mi NNE 8.1 mph - N/A   Overcast
9:36 PM 44.6 °F 41.4 °F 43.2 °F 95% 29.22 in 10.0 mi NNE 5.8 mph - N/A   Overcast
9:55 PM 44.6 °F 39.7 °F 43.2 °F 95% 29.22 in 10.0 mi NNE 9.2 mph 16.1 mph N/A   Overcast
9:56 PM 44.6 °F 39.7 °F 43.2 °F 95% 29.22 in 10.0 mi NNE 9.2 mph 16.1 mph N/A   Overcast
10:18 PM 44.6 °F 40.2 °F 43.3 °F 95% 29.22 in 10.0 mi North 8.1 mph - N/A   Overcast
10:36 PM 44.6 °F 42.2 °F 43.2 °F 95% 29.22 in 10.0 mi North 4.6 mph - N/A   Overcast
10:56 PM 44.4 °F 40.5 °F 43.0 °F 95% 29.21 in 10.0 mi NNW 6.9 mph - N/A   Overcast
11:15 PM 44.2 °F 41.0 °F 42.8 °F 95% 29.21 in 10.0 mi NNW 5.8 mph - N/A   Overcast
11:35 PM 44.1 °F 41.5 °F 42.8 °F 95% 29.21 in 10.0 mi North 4.6 mph - N/A   Overcast
11:39 PM 43.9 °F 41.3 °F 42.8 °F 96% 29.21 in 10.0 mi North 4.6 mph - N/A   Overcast
11:57 PM 43.7 °F 40.3 °F 42.4 °F 95% 29.21 in 10.0 mi North 5.8 mph - N/A   Overcast